Weather Roundup
Issued by NWS Corpus Christi, TX

Home | Current Version | Previous Version | Text Only | Print | Product List | Glossary On
Versions: 1 2 3 4 5 6 7 8 9 10 11 12 13 14 15 16 17 18 19 20 21 22 23 24 25 26 27 28 29 30 31 32 33 34 35 36 37 38 39 40 41 42 43 44 45 46 47 48 49 50
000
ASUS44 KCRP 241110
HRRCRP

SOUTH TEXAS REGIONAL WEATHER ROUNDUP
NATIONAL WEATHER SERVICE CORPUS CHRISTI TX
500 AM CST WED JAN 24 2018


TXZ229>244-241200-
...CORPUS CHRISTI AREA OBSERVATIONS...

CITY           SKY/WX    TMP DP  RH WIND       PRES   REMARKS
CORPUS CHRISTI CLOUDY    53  33  46 N6        30.34S
NAS CORPUS CHR CLOUDY    55  43  63 N10       30.33F
ROCKPORT       CLOUDY    51  32  48 N6        30.34S
KINGSVILLE ARP CLOUDY    51  36  57 N5        30.34S
KINGSVILLE NAS CLOUDY    52  33  48 N7        30.33S
ALICE          CLOUDY    49  30  48 N6        30.34R
$$

...VICTORIA AREA OBSERVATIONS...

CITY           SKY/WX    TMP DP  RH WIND       PRES   REMARKS
PORT LAVACA    PTCLDY    39  31  73 N6        30.36R
VICTORIA       CLOUDY    41  28  60 NE6       30.37R
BEEVILLE       FAIR      41  29  64 N6        30.36R
PLEASANTON     CLEAR     33  27  79 CALM      30.38R
SAN ANTONIO    MOCLDY    35  24  64 NW7       30.38R
$$

...LAREDO AREA OBSERVATIONS...

CITY           SKY/WX    TMP DP  RH WIND       PRES   REMARKS
LAREDO         CLOUDY    46  27  47 CALM      30.36R
COTULLA        CLOUDY    39  24  55 NE5       30.36R
DEL RIO        PTCLDY    38  18  44 N3        30.37R
MCALLEN        CLOUDY    58  40  51 N6        30.32S
HEBBRONVILLE   CLOUDY    49  29  47 CALM      30.34R
$$

...OTHER TEXAS OBSERVATIONS...

CITY           SKY/WX    TMP DP  RH WIND       PRES   REMARKS
BROWNSVILLE    LGT RAIN  57  49  74 NE5       30.30F
HOUSTON        CLOUDY    40  29  64 N6        30.38R
COL. STATION   CLEAR     43  24  47 N8        30.39R
AUSTIN         PTCLDY    24  24 100 CALM      30.39R
WACO           CLEAR     25  19  78 SW3       30.41S
FORT WORTH     PTCLDY    35  21  56 N3        30.39R
WICHITA FALLS  CLEAR     29  14  53 NW5       30.40S
LUBBOCK        CLOUDY    20   0  41 CALM      30.39R
EL PASO        PTCLDY    33   0  24 N9        30.33S
$$

...MARINE OBSERVATIONS...

STATION/POSITION TIME  SKY/WX   TEMP    WIND        PRES    VSBY  WAVE   SWELL
                                AIR SEA DIR/SP/G                  HT/PER HT/PER
                 (UTC)          (F)     (DEG/KT/KT) (MB)    (MI)  (FT/S) (FT/S)
PORT ARANSAS     NOT AVBL
BUOY 90 E PORT A 1050            61 71   20/ 16/ 19 1026.6F         4/ 5   2/ 8
BUOY 200 E PT IS 1050            63 72   10/ 16/ 21 1025.0R         4/ 6   2/ 7
BUOY 15 E GALVES NOT AVBL
$$



USA.gov is the U.S. government's official web portal to all federal, state and local government web resources and services.